[[{"header":{"parameterUnit":"m.s-1","parameterCategory":1,"la1":30.2991,"la2":30.254,"lo1":-89.0895,"lo2":-89.0444,"dy":0.0017,"dx":0.0017,"nx":28,"ny":28,"refTime":"2025-07-04T03:00:00:Z","depth":0,"parameterNumber":2,"parameterNumberName":"U-component_of_WINDS"},"data":[0,0,0,0,0,0,0,0,0,0,0,0,0,0,0,0,0,0,0,0,0,0,0,0,0,0,0,0,0,0,0,0,0,0,0,0,0,0,0,0,0,0,0,0,0,0,0,0,0,0,0,0,0,0,0,0,0,0,1.3533,1.3534,0,1.3597,1.3598,1.3599,1.3599,1.3598,1.3597,1.3596,1.3666,1.3669,1.3671,0,0,0,0,0,0,0,0,0,0,0,0,0,1.3415,1.3418,1.3533,1.3534,1.3535,1.3597,1.3598,1.3599,1.3599,1.3598,1.3597,1.3596,1.3665,1.3668,1.3671,0,0,0,0,0,0,0,0,0,0,0,0,0,1.3472,1.3418,1.3533,1.3542,1.3544,1.3597,1.3598,1.3599,1.3599,1.3598,1.3597,1.3595,1.3664,1.3668,1.3672,1.3721,0,0,1.3684,1.3686,0,0,0,0,0,0,0,0,1.3469,1.3476,1.354,1.3542,1.3543,1.3589,1.3582,1.364,1.3599,1.3578,1.3596,1.3595,1.3642,1.3647,1.3662,1.3725,1.3728,1.3684,1.3687,1.3688,1.3689,0,0,0,0,0,0,0,1.3465,1.3473,1.3559,1.3541,1.3543,1.3545,1.3551,1.3593,1.3616,1.358,1.358,1.3587,1.3642,1.3658,1.3664,1.3729,1.3684,1.3688,1.369,1.3692,1.3836,1.3838,0,0,0,0,0,0,1.3458,1.347,1.3556,1.356,1.3502,1.3548,1.3555,1.3575,1.3616,1.3621,1.3588,1.3587,1.3652,1.3659,1.3666,1.3727,1.3688,1.3692,1.3694,1.3835,1.3837,1.3838,0,0,0,0,0,0,1.3456,1.3466,1.3554,1.3515,1.3527,1.3551,1.3574,1.3577,1.3593,1.3622,1.3627,1.36,1.3652,1.3661,1.3708,1.3729,1.3694,1.3697,1.3833,1.3835,1.3837,1.3848,0,0,0,0,0,0,1.3452,1.3465,1.3483,1.3516,1.3529,1.3592,1.3575,1.358,1.36,1.3599,1.3634,1.3639,1.3651,1.3702,1.3712,1.3734,1.3701,1.3831,1.3834,1.3837,1.3846,1.385,1.3854,0,0,0,0,0,1.3448,1.3484,1.3484,1.3494,1.3551,1.3594,1.3601,1.3613,1.3601,1.362,1.3639,1.3638,1.3726,1.3706,1.3718,1.3741,1.383,1.3833,1.3837,1.3844,1.3849,1.3854,0,0,0,0,0,0,1.3453,1.3488,1.3488,1.3535,1.3561,1.3593,1.3617,1.3618,1.3649,1.3647,1.3662,1.367,1.3717,1.3735,1.3712,1.3792,1.3777,1.3782,1.3778,1.3784,1.3788,1.3782,1.3704,0,0,0,0,0,1.346,1.349,1.352,1.3558,1.3572,1.3592,1.3611,1.3618,1.3647,1.3658,1.368,1.3709,1.3743,1.3765,1.3798,1.3849,1.3857,1.3872,1.3876,1.3879,1.3883,1.3912,1.3919,1.3849,1.3849,1.3849,0,0,1.3473,1.3496,1.3515,1.356,1.3581,1.3613,1.3601,1.3636,1.366,1.3664,1.3708,1.3726,1.3759,1.3809,1.3832,1.3825,1.3905,1.3883,1.3885,1.3888,1.3916,1.3923,1.3928,1.3851,1.3851,1.3851,0,0,1.3514,1.3535,1.3569,1.3591,1.3623,1.3637,1.3645,1.3678,1.3689,1.3735,1.3738,1.3769,1.3827,1.385,1.387,1.3923,1.3923,1.3934,1.3954,1.3982,1.3988,1.3993,1.4011,1.4017,1.3938,1.3938,1.3938,0,1.3527,1.3575,1.3587,1.3622,1.3642,1.3646,1.3682,1.3703,1.3745,1.3759,1.3751,1.3824,1.3847,1.3902,1.3915,1.3931,1.3942,1.3928,1.3986,1.3991,1.3996,1.4013,1.402,1.3939,1.3939,1.3939,1.3939,0,1.3589,1.3622,1.3647,1.3685,1.3709,1.3744,1.3763,1.3786,1.3792,1.3808,1.3855,1.3883,1.3921,1.3936,1.3942,1.3992,1.3987,1.3982,1.3967,1.4003,1.402,1.4026,1.394,1.394,1.394,1.3939,0,0,1.3632,1.3679,1.3687,1.3705,1.3742,1.3769,1.3806,1.3842,1.3861,1.3891,1.3922,1.3973,1.3969,1.3991,1.4001,1.4026,1.4066,1.4019,1.402,1.4025,1.4122,1.4124,1.4132,1.4067,1.4069,1.407,1.4119,0,1.3676,1.3738,1.3752,1.3806,1.3838,1.3844,1.3876,1.3903,1.3919,1.395,1.3969,1.4003,1.3996,1.4009,1.4035,1.4055,1.4085,1.4052,1.4097,1.4098,1.4086,1.414,1.4142,1.4187,1.4126,1.4127,1.4128,0,1.3734,1.3764,1.3821,1.3855,1.3869,1.3897,1.3932,1.3961,1.3993,1.4004,1.4029,1.4037,1.4077,1.4061,1.4117,1.4094,1.4114,1.4128,1.413,1.4133,1.4113,1.4143,1.4202,1.4208,1.4139,1.4138,1.4137,0,1.3758,1.3813,1.3855,1.387,1.3911,1.3931,1.3949,1.3979,1.4001,1.4034,1.4048,1.4085,1.4105,1.4135,1.4153,1.414,1.4207,1.4193,1.4217,1.4216,1.4229,1.4227,1.4289,1.4245,1.4245,1.4245,1.4244,0,1.3804,1.3838,1.3866,1.3891,1.3931,1.3948,1.3987,1.4006,1.4033,1.4064,1.4073,1.4101,1.4124,1.4157,1.4172,1.4216,1.4225,1.4235,1.4238,1.4233,1.4232,1.4244,1.4241,1.4246,1.4246,1.4246,1.4245,0,1.3835,1.3855,1.3901,1.3936,1.3946,1.3974,1.4005,1.4031,1.4049,1.4087,1.4097,1.4125,1.4163,1.4185,1.4234,1.4245,1.4293,1.4296,1.4281,1.4282,1.4305,1.4302,1.4376,1.4386,1.4336,1.4337,1.4337,0,1.3862,1.3889,1.3927,1.3948,1.3966,1.3999,1.4021,1.4041,1.4064,1.4103,1.4125,1.4164,1.4195,1.4257,1.4283,1.4321,1.4324,1.4347,1.4329,1.4323,1.4323,1.432,1.4323,1.4349,1.435,1.435,1.4351,0,1.3907,1.3916,1.3947,1.3983,1.4009,1.4038,1.4067,1.4084,1.4108,1.4134,1.4173,1.4198,1.4248,1.4287,1.4327,1.4348,1.4354,1.4356,1.4364,1.4358,1.4348,1.4352,1.4288,1.4354,1.4354,1.4353,1.4353,1.4353,1.3936,1.396,1.3992,1.4027,1.4051,1.4078,1.4104,1.4125,1.4158,1.4199,1.4209,1.425,1.4284,1.4339,1.4361,1.4394,1.439,1.4401,1.4403,1.4405,1.4405,1.4344,1.4402,1.4402,1.4402,1.4402,1.4402,0,1.3981,1.4002,1.4034,1.4074,1.4102,1.4105,1.4138,1.4161,1.4197,1.4227,1.4259,1.4305,1.4343,1.4372,1.4412,1.4433,1.4437,1.4443,1.4441,1.4445,1.4407,1.4396,1.444,1.4439,1.4439,1.4439,1.4439,1.4439,1.4007,1.4048,1.4061,1.4115,1.4136,1.4176,1.4194,1.422,1.4244,1.4295,1.4326,1.4345,1.4376,1.4418,1.4454,1.4462,1.4476,1.4481,1.4489,1.4452,1.4448,1.4444,1.4434,1.4484,1.4484,1.4524,1.4525,1.4525]},{"header":{"parameterUnit":"m.s-1","parameterCategory":1,"la1":30.2991,"la2":30.254,"lo1":-89.0895,"lo2":-89.0444,"dy":0.0017,"dx":0.0017,"nx":28,"ny":28,"refTime":"2025-07-04T03:00:00:Z","depth":0,"parameterNumber":3,"parameterNumberName":"V-component_of_WINDS"},"data":[0,0,0,0,0,0,0,0,0,0,0,0,0,0,0,0,0,0,0,0,0,0,0,0,0,0,0,0,0,0,0,0,0,0,0,0,0,0,0,0,0,0,0,0,0,0,0,0,0,0,0,0,0,0,0,0,0,0,2.1841,2.184,0,2.1756,2.1755,2.1754,2.1709,2.1708,2.1708,2.1708,2.1611,2.1608,2.1606,0,0,0,0,0,0,0,0,0,0,0,0,0,2.1958,2.1956,2.1841,2.184,2.1839,2.1756,2.1755,2.1754,2.1709,2.1708,2.1708,2.1708,2.1612,2.1609,2.1605,0,0,0,0,0,0,0,0,0,0,0,0,0,2.1893,2.1956,2.1842,2.1807,2.1803,2.1756,2.1755,2.1753,2.1709,2.1708,2.1708,2.1708,2.1613,2.1609,2.1605,2.1583,0,0,2.1593,2.1592,0,0,0,0,0,0,0,0,2.1897,2.1889,2.1813,2.1809,2.1805,2.1743,2.176,2.1696,2.1709,2.1744,2.1708,2.1708,2.1654,2.1647,2.1631,2.1579,2.1574,2.1593,2.1591,2.1589,2.1588,0,0,0,0,0,0,0,2.1902,2.1893,2.1807,2.1812,2.1807,2.1793,2.1784,2.1748,2.17,2.1741,2.1738,2.1729,2.1652,2.1635,2.1628,2.1573,2.1593,2.159,2.1587,2.1586,2.1501,2.1501,0,0,0,0,0,0,2.1913,2.1897,2.181,2.1805,2.1852,2.1791,2.1781,2.1763,2.1701,2.1691,2.1729,2.1727,2.1641,2.1633,2.1624,2.1596,2.1589,2.1586,2.1583,2.1501,2.1501,2.1501,0,0,0,0,0,0,2.1916,2.1906,2.1813,2.185,2.1837,2.179,2.1769,2.1761,2.1744,2.1692,2.1682,2.172,2.1641,2.163,2.1595,2.1592,2.1584,2.158,2.1501,2.1501,2.1501,2.1538,0,0,0,0,0,0,2.1919,2.1907,2.1899,2.185,2.1835,2.1788,2.1769,2.176,2.1739,2.1735,2.1681,2.1672,2.164,2.1601,2.1591,2.1586,2.1577,2.15,2.1501,2.1501,2.1536,2.1539,2.1541,0,0,0,0,0,2.1924,2.1911,2.1899,2.1889,2.1826,2.1787,2.1779,2.1745,2.1739,2.173,2.1697,2.1674,2.1594,2.1598,2.1586,2.158,2.15,2.1501,2.1501,2.1535,2.1538,2.1541,0,0,0,0,0,0,2.1956,2.1903,2.189,2.1861,2.183,2.178,2.1767,2.1749,2.1715,2.1713,2.167,2.1658,2.1627,2.16,2.1605,2.1557,2.1545,2.1543,2.1575,2.1578,2.158,2.1586,2.1574,0,0,0,0,0,2.1961,2.1937,2.1891,2.187,2.1856,2.1815,2.1797,2.1774,2.1738,2.1723,2.1687,2.1651,2.1618,2.1596,2.1563,2.1533,2.1521,2.1524,2.1526,2.1528,2.1526,2.1509,2.151,2.1501,2.1501,2.1501,0,0,2.1968,2.1937,2.1923,2.1876,2.1849,2.1823,2.1803,2.1776,2.1756,2.1718,2.1684,2.1657,2.1613,2.1582,2.1566,2.1558,2.1527,2.1528,2.153,2.1527,2.1509,2.151,2.1511,2.1501,2.1501,2.1501,0,0,2.1969,2.1944,2.1924,2.1899,2.186,2.1834,2.1829,2.1783,2.1765,2.1731,2.1703,2.1677,2.1621,2.1592,2.157,2.1565,2.1542,2.1555,2.1566,2.155,2.1551,2.1551,2.1549,2.1549,2.1553,2.1554,2.1554,0,2.1982,2.1946,2.1915,2.1892,2.1871,2.1841,2.182,2.1796,2.1746,2.1732,2.1726,2.1657,2.1625,2.1587,2.1587,2.157,2.1562,2.1559,2.1554,2.1554,2.1554,2.1551,2.1551,2.1555,2.1555,2.1555,2.1555,0,2.1964,2.1939,2.1928,2.1886,2.1865,2.1842,2.1807,2.1789,2.1769,2.1743,2.171,2.1672,2.1631,2.1621,2.1599,2.158,2.1577,2.1563,2.1549,2.1557,2.1554,2.1553,2.1558,2.1557,2.1557,2.1556,0,0,2.1979,2.1925,2.1921,2.1903,2.1859,2.1838,2.1815,2.1779,2.1764,2.1732,2.171,2.1666,2.1655,2.1629,2.1605,2.1592,2.1591,2.1579,2.1577,2.1582,2.1567,2.1577,2.1576,2.1577,2.1577,2.1576,2.157,0,2.1973,2.1933,2.1907,2.1876,2.1852,2.1825,2.1805,2.1775,2.1751,2.1726,2.1698,2.1668,2.1655,2.164,2.1626,2.1594,2.1587,2.1594,2.1554,2.1553,2.1564,2.1574,2.1584,2.158,2.1569,2.1569,2.1569,0,2.196,2.1934,2.1902,2.1864,2.1853,2.1835,2.1802,2.1779,2.1745,2.1729,2.1704,2.168,2.1653,2.1645,2.1606,2.1612,2.1594,2.1577,2.1575,2.1568,2.156,2.1566,2.1578,2.1577,2.1566,2.1567,2.1567,0,2.1974,2.193,2.1906,2.1891,2.1846,2.1835,2.1815,2.1781,2.1763,2.1733,2.172,2.1686,2.1667,2.1641,2.1608,2.1605,2.1573,2.1561,2.1556,2.1557,2.1548,2.1549,2.1555,2.154,2.154,2.154,2.154,0,2.1969,2.195,2.1912,2.1897,2.1875,2.1846,2.1824,2.1802,2.1773,2.1751,2.1725,2.1705,2.1665,2.1639,2.1614,2.1586,2.1577,2.1562,2.1554,2.1563,2.1565,2.1549,2.1548,2.154,2.154,2.154,2.154,0,2.1979,2.1953,2.1925,2.1887,2.1877,2.1863,2.1829,2.1813,2.179,2.1763,2.1755,2.1717,2.1687,2.1653,2.1609,2.1592,2.1565,2.1556,2.1578,2.1574,2.157,2.1571,2.1565,2.1563,2.1551,2.1551,2.1551,0,2.1977,2.1963,2.1925,2.1911,2.1894,2.187,2.1853,2.1823,2.1805,2.1768,2.1756,2.1725,2.1697,2.1649,2.1616,2.1583,2.1572,2.1573,2.1566,2.1576,2.1571,2.1572,2.157,2.1573,2.1574,2.1574,2.1574,0,2.1975,2.1965,2.1942,2.1915,2.1896,2.1873,2.1848,2.1837,2.1803,2.1784,2.1754,2.1734,2.1693,2.1661,2.1625,2.1602,2.1582,2.1578,2.1574,2.1581,2.1594,2.1587,2.1581,2.1577,2.1576,2.1576,2.1576,2.1576,2.1978,2.1965,2.1938,2.1914,2.1894,2.1872,2.1856,2.1833,2.1809,2.1776,2.176,2.173,2.1698,2.1649,2.1627,2.1602,2.1595,2.1591,2.1589,2.1588,2.1591,2.1601,2.1595,2.1595,2.1595,2.1595,2.1595,0,2.1975,2.1958,2.1936,2.1905,2.1886,2.1875,2.1847,2.1831,2.1807,2.1781,2.1757,2.1724,2.1694,2.1661,2.1629,2.1615,2.1605,2.1608,2.1607,2.1602,2.1599,2.1604,2.1616,2.1616,2.1616,2.1616,2.1616,2.1616,2.1971,2.1949,2.1935,2.1903,2.1884,2.1859,2.1844,2.1824,2.1803,2.1769,2.1746,2.1726,2.1697,2.1663,2.1635,2.1626,2.1615,2.162,2.1607,2.1604,2.1602,2.16,2.1606,2.1618,2.1618,2.1613,2.1613,2.1613]}]]